<?xml version="1.0" encoding="UTF-8" standalone="no" ?>
<gpx xmlns="http://www.topografix.com/GPX/1/1" xmlns:xsi="http://www.w3.org/2001/XMLSchema-instance" xsi:schemaLocation="http://www.topografix.com/GPX/1/1 http://www.topografix.com/GPX/1/1/gpx.xsd" version="1.1" creator="VisuGPX - https://www.visugpx.com">
  <metadata>
    <name>Suisse-Normande-37-28</name>
  </metadata>
  <trk>
    <name><![CDATA[11340622-Lac de Rabodanges]]></name>
    <extensions>
      <line xmlns="http://www.topografix.com/GPX/gpx_style/0/2">
        <color>ff0026</color>
        <width>4</width>
      </line>
    </extensions>
    <trkseg>
      <trkpt lat="48.76391" lon="-0.24486">
        <ele>129</ele>
        <time>2020-05-23T14:00:45Z</time>
      </trkpt>
      <trkpt lat="48.7627" lon="-0.24546">
        <ele>132</ele>
        <time>2020-05-23T14:01:15Z</time>
      </trkpt>
      <trkpt lat="48.76233" lon="-0.24577">
        <ele>132</ele>
        <time>2020-05-23T14:01:25Z</time>
      </trkpt>
      <trkpt lat="48.76213" lon="-0.24639">
        <ele>134</ele>
        <time>2020-05-23T14:01:35Z</time>
      </trkpt>
      <trkpt lat="48.76084" lon="-0.24786">
        <ele>139</ele>
        <time>2020-05-23T14:02:13Z</time>
      </trkpt>
      <trkpt lat="48.75871" lon="-0.24785">
        <ele>143</ele>
        <time>2020-05-23T14:03:03Z</time>
      </trkpt>
      <trkpt lat="48.75854" lon="-0.24771">
        <ele>143</ele>
        <time>2020-05-23T14:03:07Z</time>
      </trkpt>
      <trkpt lat="48.75823" lon="-0.24769">
        <ele>146</ele>
        <time>2020-05-23T14:03:14Z</time>
      </trkpt>
      <trkpt lat="48.75775" lon="-0.24751">
        <ele>150</ele>
        <time>2020-05-23T14:03:26Z</time>
      </trkpt>
      <trkpt lat="48.75711" lon="-0.24769">
        <ele>162</ele>
        <time>2020-05-23T14:03:41Z</time>
      </trkpt>
      <trkpt lat="48.75707" lon="-0.24772">
        <ele>163</ele>
        <time>2020-05-23T14:03:42Z</time>
      </trkpt>
      <trkpt lat="48.75612" lon="-0.24749">
        <ele>175</ele>
        <time>2020-05-23T14:04:05Z</time>
      </trkpt>
      <trkpt lat="48.75522" lon="-0.24805">
        <ele>187</ele>
        <time>2020-05-23T14:04:27Z</time>
      </trkpt>
      <trkpt lat="48.75361" lon="-0.25033">
        <ele>199</ele>
        <time>2020-05-23T14:05:19Z</time>
      </trkpt>
      <trkpt lat="48.7524" lon="-0.25108">
        <ele>201</ele>
        <time>2020-05-23T14:05:49Z</time>
      </trkpt>
      <trkpt lat="48.75152" lon="-0.25188">
        <ele>203</ele>
        <time>2020-05-23T14:06:13Z</time>
      </trkpt>
      <trkpt lat="48.75104" lon="-0.25261">
        <ele>207</ele>
        <time>2020-05-23T14:06:29Z</time>
      </trkpt>
      <trkpt lat="48.75132" lon="-0.25317">
        <ele>205</ele>
        <time>2020-05-23T14:06:40Z</time>
      </trkpt>
      <trkpt lat="48.75169" lon="-0.25326">
        <ele>202</ele>
        <time>2020-05-23T14:06:49Z</time>
      </trkpt>
      <trkpt lat="48.75214" lon="-0.25477">
        <ele>204</ele>
        <time>2020-05-23T14:07:14Z</time>
      </trkpt>
      <trkpt lat="48.75192" lon="-0.25515">
        <ele>207</ele>
        <time>2020-05-23T14:07:22Z</time>
      </trkpt>
      <trkpt lat="48.75155" lon="-0.25649">
        <ele>214</ele>
        <time>2020-05-23T14:07:44Z</time>
      </trkpt>
      <trkpt lat="48.75323" lon="-0.25793">
        <ele>209</ele>
        <time>2020-05-23T14:08:29Z</time>
      </trkpt>
      <trkpt lat="48.75388" lon="-0.25935">
        <ele>210</ele>
        <time>2020-05-23T14:08:56Z</time>
      </trkpt>
      <trkpt lat="48.75484" lon="-0.26156">
        <ele>210</ele>
        <time>2020-05-23T14:09:37Z</time>
      </trkpt>
      <trkpt lat="48.75513" lon="-0.26248">
        <ele>211</ele>
        <time>2020-05-23T14:09:53Z</time>
      </trkpt>
      <trkpt lat="48.75568" lon="-0.26311">
        <ele>209</ele>
        <time>2020-05-23T14:10:09Z</time>
      </trkpt>
      <trkpt lat="48.75595" lon="-0.26405">
        <ele>211</ele>
        <time>2020-05-23T14:10:24Z</time>
      </trkpt>
      <trkpt lat="48.75607" lon="-0.26484">
        <ele>213</ele>
        <time>2020-05-23T14:10:37Z</time>
      </trkpt>
      <trkpt lat="48.75632" lon="-0.26535">
        <ele>213</ele>
        <time>2020-05-23T14:10:47Z</time>
      </trkpt>
      <trkpt lat="48.75613" lon="-0.26584">
        <ele>213</ele>
        <time>2020-05-23T14:10:55Z</time>
      </trkpt>
      <trkpt lat="48.75701" lon="-0.26629">
        <ele>216</ele>
        <time>2020-05-23T14:11:17Z</time>
      </trkpt>
      <trkpt lat="48.75709" lon="-0.26524">
        <ele>214</ele>
        <time>2020-05-23T14:11:33Z</time>
      </trkpt>
      <trkpt lat="48.75735" lon="-0.26461">
        <ele>212</ele>
        <time>2020-05-23T14:11:45Z</time>
      </trkpt>
      <trkpt lat="48.75764" lon="-0.26425">
        <ele>211</ele>
        <time>2020-05-23T14:11:54Z</time>
      </trkpt>
      <trkpt lat="48.75836" lon="-0.26495">
        <ele>213</ele>
        <time>2020-05-23T14:12:14Z</time>
      </trkpt>
      <trkpt lat="48.75901" lon="-0.26412">
        <ele>208</ele>
        <time>2020-05-23T14:12:33Z</time>
      </trkpt>
      <trkpt lat="48.75944" lon="-0.26293">
        <ele>207</ele>
        <time>2020-05-23T14:12:54Z</time>
      </trkpt>
      <trkpt lat="48.75997" lon="-0.26272">
        <ele>206</ele>
        <time>2020-05-23T14:13:07Z</time>
      </trkpt>
      <trkpt lat="48.76169" lon="-0.26248">
        <ele>199</ele>
        <time>2020-05-23T14:13:47Z</time>
      </trkpt>
      <trkpt lat="48.76237" lon="-0.26216">
        <ele>196</ele>
        <time>2020-05-23T14:14:04Z</time>
      </trkpt>
      <trkpt lat="48.76241" lon="-0.26283">
        <ele>198</ele>
        <time>2020-05-23T14:14:14Z</time>
      </trkpt>
      <trkpt lat="48.76281" lon="-0.26437">
        <ele>197</ele>
        <time>2020-05-23T14:14:40Z</time>
      </trkpt>
      <trkpt lat="48.76245" lon="-0.26576">
        <ele>189</ele>
        <time>2020-05-23T14:15:03Z</time>
      </trkpt>
      <trkpt lat="48.76265" lon="-0.26632">
        <ele>188</ele>
        <time>2020-05-23T14:15:13Z</time>
      </trkpt>
      <trkpt lat="48.76283" lon="-0.26644">
        <ele>188</ele>
        <time>2020-05-23T14:15:17Z</time>
      </trkpt>
      <trkpt lat="48.76313" lon="-0.26647">
        <ele>189</ele>
        <time>2020-05-23T14:15:24Z</time>
      </trkpt>
      <trkpt lat="48.76351" lon="-0.26629">
        <ele>188</ele>
        <time>2020-05-23T14:15:34Z</time>
      </trkpt>
      <trkpt lat="48.76413" lon="-0.26673">
        <ele>190</ele>
        <time>2020-05-23T14:15:50Z</time>
      </trkpt>
      <trkpt lat="48.76481" lon="-0.26797">
        <ele>197</ele>
        <time>2020-05-23T14:16:14Z</time>
      </trkpt>
      <trkpt lat="48.76573" lon="-0.26834">
        <ele>199</ele>
        <time>2020-05-23T14:16:37Z</time>
      </trkpt>
      <trkpt lat="48.76602" lon="-0.26895">
        <ele>200</ele>
        <time>2020-05-23T14:16:48Z</time>
      </trkpt>
      <trkpt lat="48.76589" lon="-0.26963">
        <ele>201</ele>
        <time>2020-05-23T14:16:59Z</time>
      </trkpt>
      <trkpt lat="48.76615" lon="-0.27035">
        <ele>201</ele>
        <time>2020-05-23T14:17:12Z</time>
      </trkpt>
      <trkpt lat="48.76618" lon="-0.27159">
        <ele>198</ele>
        <time>2020-05-23T14:17:31Z</time>
      </trkpt>
      <trkpt lat="48.76648" lon="-0.27347">
        <ele>195</ele>
        <time>2020-05-23T14:18:01Z</time>
      </trkpt>
      <trkpt lat="48.7667" lon="-0.27376">
        <ele>194</ele>
        <time>2020-05-23T14:18:07Z</time>
      </trkpt>
      <trkpt lat="48.76672" lon="-0.27484">
        <ele>188</ele>
        <time>2020-05-23T14:18:24Z</time>
      </trkpt>
      <trkpt lat="48.76767" lon="-0.27495">
        <ele>183</ele>
        <time>2020-05-23T14:18:46Z</time>
      </trkpt>
      <trkpt lat="48.76919" lon="-0.27456">
        <ele>179</ele>
        <time>2020-05-23T14:19:22Z</time>
      </trkpt>
      <trkpt lat="48.77007" lon="-0.27447">
        <ele>176</ele>
        <time>2020-05-23T14:19:43Z</time>
      </trkpt>
      <trkpt lat="48.77042" lon="-0.27498">
        <ele>170</ele>
        <time>2020-05-23T14:19:54Z</time>
      </trkpt>
      <trkpt lat="48.77139" lon="-0.2756">
        <ele>159</ele>
        <time>2020-05-23T14:20:19Z</time>
      </trkpt>
      <trkpt lat="48.77203" lon="-0.27558">
        <ele>157</ele>
        <time>2020-05-23T14:20:34Z</time>
      </trkpt>
      <trkpt lat="48.77276" lon="-0.27627">
        <ele>160</ele>
        <time>2020-05-23T14:20:54Z</time>
      </trkpt>
      <trkpt lat="48.77303" lon="-0.27652">
        <ele>160</ele>
        <time>2020-05-23T14:21:01Z</time>
      </trkpt>
      <trkpt lat="48.77343" lon="-0.27621">
        <ele>156</ele>
        <time>2020-05-23T14:21:12Z</time>
      </trkpt>
      <trkpt lat="48.77395" lon="-0.27704">
        <ele>156</ele>
        <time>2020-05-23T14:21:29Z</time>
      </trkpt>
      <trkpt lat="48.77423" lon="-0.27793">
        <ele>160</ele>
        <time>2020-05-23T14:21:45Z</time>
      </trkpt>
      <trkpt lat="48.77414" lon="-0.27968">
        <ele>178</ele>
        <time>2020-05-23T14:22:12Z</time>
      </trkpt>
      <trkpt lat="48.77484" lon="-0.28106">
        <ele>182</ele>
        <time>2020-05-23T14:22:38Z</time>
      </trkpt>
      <trkpt lat="48.77522" lon="-0.28229">
        <ele>183</ele>
        <time>2020-05-23T14:22:59Z</time>
      </trkpt>
      <trkpt lat="48.7761" lon="-0.28365">
        <ele>177</ele>
        <time>2020-05-23T14:23:29Z</time>
      </trkpt>
      <trkpt lat="48.77655" lon="-0.28353">
        <ele>172</ele>
        <time>2020-05-23T14:23:39Z</time>
      </trkpt>
      <trkpt lat="48.77732" lon="-0.28341">
        <ele>165</ele>
        <time>2020-05-23T14:23:57Z</time>
      </trkpt>
      <trkpt lat="48.77792" lon="-0.28298">
        <ele>158</ele>
        <time>2020-05-23T14:24:13Z</time>
      </trkpt>
      <trkpt lat="48.77827" lon="-0.28444">
        <ele>159</ele>
        <time>2020-05-23T14:24:37Z</time>
      </trkpt>
      <trkpt lat="48.77901" lon="-0.28447">
        <ele>156</ele>
        <time>2020-05-23T14:24:54Z</time>
      </trkpt>
      <trkpt lat="48.77927" lon="-0.28467">
        <ele>152</ele>
        <time>2020-05-23T14:25:01Z</time>
      </trkpt>
      <trkpt lat="48.77974" lon="-0.28481">
        <ele>144</ele>
        <time>2020-05-23T14:25:12Z</time>
      </trkpt>
      <trkpt lat="48.77994" lon="-0.28564">
        <ele>140</ele>
        <time>2020-05-23T14:25:26Z</time>
      </trkpt>
      <trkpt lat="48.78004" lon="-0.28582">
        <ele>139</ele>
        <time>2020-05-23T14:25:29Z</time>
      </trkpt>
      <trkpt lat="48.78019" lon="-0.28588">
        <ele>138</ele>
        <time>2020-05-23T14:25:33Z</time>
      </trkpt>
      <trkpt lat="48.78066" lon="-0.28556">
        <ele>132</ele>
        <time>2020-05-23T14:25:45Z</time>
      </trkpt>
      <trkpt lat="48.78092" lon="-0.28576">
        <ele>130</ele>
        <time>2020-05-23T14:25:52Z</time>
      </trkpt>
      <trkpt lat="48.78114" lon="-0.28603">
        <ele>132</ele>
        <time>2020-05-23T14:25:58Z</time>
      </trkpt>
      <trkpt lat="48.78076" lon="-0.28599">
        <ele>135</ele>
        <time>2020-05-23T14:26:07Z</time>
      </trkpt>
      <trkpt lat="48.78056" lon="-0.2861">
        <ele>138</ele>
        <time>2020-05-23T14:26:12Z</time>
      </trkpt>
      <trkpt lat="48.78042" lon="-0.28636">
        <ele>142</ele>
        <time>2020-05-23T14:26:17Z</time>
      </trkpt>
      <trkpt lat="48.78037" lon="-0.28664">
        <ele>146</ele>
        <time>2020-05-23T14:26:22Z</time>
      </trkpt>
      <trkpt lat="48.7807" lon="-0.28628">
        <ele>140</ele>
        <time>2020-05-23T14:26:31Z</time>
      </trkpt>
      <trkpt lat="48.78114" lon="-0.28636">
        <ele>138</ele>
        <time>2020-05-23T14:26:42Z</time>
      </trkpt>
      <trkpt lat="48.78164" lon="-0.28657">
        <ele>134</ele>
        <time>2020-05-23T14:26:54Z</time>
      </trkpt>
      <trkpt lat="48.7821" lon="-0.28631">
        <ele>127</ele>
        <time>2020-05-23T14:27:05Z</time>
      </trkpt>
      <trkpt lat="48.78329" lon="-0.28516">
        <ele>129</ele>
        <time>2020-05-23T14:27:38Z</time>
      </trkpt>
      <trkpt lat="48.78348" lon="-0.28319">
        <ele>146</ele>
        <time>2020-05-23T14:28:09Z</time>
      </trkpt>
      <trkpt lat="48.78377" lon="-0.28212">
        <ele>148</ele>
        <time>2020-05-23T14:28:27Z</time>
      </trkpt>
      <trkpt lat="48.78375" lon="-0.28087">
        <ele>153</ele>
        <time>2020-05-23T14:28:46Z</time>
      </trkpt>
      <trkpt lat="48.78349" lon="-0.27911">
        <ele>157</ele>
        <time>2020-05-23T14:29:14Z</time>
      </trkpt>
      <trkpt lat="48.78355" lon="-0.27819">
        <ele>159</ele>
        <time>2020-05-23T14:29:28Z</time>
      </trkpt>
      <trkpt lat="48.78384" lon="-0.2775">
        <ele>161</ele>
        <time>2020-05-23T14:29:40Z</time>
      </trkpt>
      <trkpt lat="48.78374" lon="-0.27688">
        <ele>164</ele>
        <time>2020-05-23T14:29:50Z</time>
      </trkpt>
      <trkpt lat="48.78382" lon="-0.27626">
        <ele>166</ele>
        <time>2020-05-23T14:30:00Z</time>
      </trkpt>
      <trkpt lat="48.78345" lon="-0.27614">
        <ele>166</ele>
        <time>2020-05-23T14:30:09Z</time>
      </trkpt>
      <trkpt lat="48.78289" lon="-0.27548">
        <ele>165</ele>
        <time>2020-05-23T14:30:25Z</time>
      </trkpt>
      <trkpt lat="48.78258" lon="-0.27527">
        <ele>164</ele>
        <time>2020-05-23T14:30:33Z</time>
      </trkpt>
      <trkpt lat="48.7819" lon="-0.27608">
        <ele>159</ele>
        <time>2020-05-23T14:30:53Z</time>
      </trkpt>
      <trkpt lat="48.7813" lon="-0.27565">
        <ele>157</ele>
        <time>2020-05-23T14:31:09Z</time>
      </trkpt>
      <trkpt lat="48.78097" lon="-0.27505">
        <ele>157</ele>
        <time>2020-05-23T14:31:21Z</time>
      </trkpt>
      <trkpt lat="48.78058" lon="-0.27474">
        <ele>154</ele>
        <time>2020-05-23T14:31:31Z</time>
      </trkpt>
      <trkpt lat="48.78116" lon="-0.27347">
        <ele>160</ele>
        <time>2020-05-23T14:31:55Z</time>
      </trkpt>
      <trkpt lat="48.78133" lon="-0.2727">
        <ele>162</ele>
        <time>2020-05-23T14:32:08Z</time>
      </trkpt>
      <trkpt lat="48.78143" lon="-0.27185">
        <ele>163</ele>
        <time>2020-05-23T14:32:21Z</time>
      </trkpt>
      <trkpt lat="48.78246" lon="-0.26961">
        <ele>177</ele>
        <time>2020-05-23T14:33:03Z</time>
      </trkpt>
      <trkpt lat="48.78235" lon="-0.26925">
        <ele>179</ele>
        <time>2020-05-23T14:33:09Z</time>
      </trkpt>
      <trkpt lat="48.7824" lon="-0.26899">
        <ele>181</ele>
        <time>2020-05-23T14:33:13Z</time>
      </trkpt>
      <trkpt lat="48.78365" lon="-0.26773">
        <ele>192</ele>
        <time>2020-05-23T14:33:48Z</time>
      </trkpt>
      <trkpt lat="48.78564" lon="-0.26481">
        <ele>206</ele>
        <time>2020-05-23T14:34:53Z</time>
      </trkpt>
      <trkpt lat="48.78598" lon="-0.26534">
        <ele>206</ele>
        <time>2020-05-23T14:35:04Z</time>
      </trkpt>
      <trkpt lat="48.78611" lon="-0.26502">
        <ele>207</ele>
        <time>2020-05-23T14:35:10Z</time>
      </trkpt>
      <trkpt lat="48.78727" lon="-0.26475">
        <ele>209</ele>
        <time>2020-05-23T14:35:37Z</time>
      </trkpt>
      <trkpt lat="48.78823" lon="-0.26445">
        <ele>205</ele>
        <time>2020-05-23T14:36:00Z</time>
      </trkpt>
      <trkpt lat="48.78866" lon="-0.26445">
        <ele>203</ele>
        <time>2020-05-23T14:36:10Z</time>
      </trkpt>
      <trkpt lat="48.7892" lon="-0.26474">
        <ele>200</ele>
        <time>2020-05-23T14:36:24Z</time>
      </trkpt>
      <trkpt lat="48.79015" lon="-0.26455">
        <ele>202</ele>
        <time>2020-05-23T14:36:46Z</time>
      </trkpt>
      <trkpt lat="48.79035" lon="-0.26385">
        <ele>204</ele>
        <time>2020-05-23T14:36:58Z</time>
      </trkpt>
      <trkpt lat="48.79054" lon="-0.26317">
        <ele>206</ele>
        <time>2020-05-23T14:37:09Z</time>
      </trkpt>
      <trkpt lat="48.791" lon="-0.26255">
        <ele>209</ele>
        <time>2020-05-23T14:37:24Z</time>
      </trkpt>
      <trkpt lat="48.79135" lon="-0.26218">
        <ele>209</ele>
        <time>2020-05-23T14:37:34Z</time>
      </trkpt>
      <trkpt lat="48.79482" lon="-0.25999">
        <ele>206</ele>
        <time>2020-05-23T14:39:01Z</time>
      </trkpt>
      <trkpt lat="48.79603" lon="-0.25868">
        <ele>204</ele>
        <time>2020-05-23T14:39:36Z</time>
      </trkpt>
      <trkpt lat="48.79578" lon="-0.25795">
        <ele>205</ele>
        <time>2020-05-23T14:39:49Z</time>
      </trkpt>
      <trkpt lat="48.79572" lon="-0.25752">
        <ele>206</ele>
        <time>2020-05-23T14:39:55Z</time>
      </trkpt>
      <trkpt lat="48.79557" lon="-0.25693">
        <ele>207</ele>
        <time>2020-05-23T14:40:05Z</time>
      </trkpt>
      <trkpt lat="48.79395" lon="-0.25347">
        <ele>221</ele>
        <time>2020-05-23T14:41:10Z</time>
      </trkpt>
      <trkpt lat="48.79514" lon="-0.25266">
        <ele>217</ele>
        <time>2020-05-23T14:41:41Z</time>
      </trkpt>
      <trkpt lat="48.79571" lon="-0.25212">
        <ele>213</ele>
        <time>2020-05-23T14:41:57Z</time>
      </trkpt>
      <trkpt lat="48.79643" lon="-0.25136">
        <ele>208</ele>
        <time>2020-05-23T14:42:17Z</time>
      </trkpt>
      <trkpt lat="48.79769" lon="-0.25099">
        <ele>203</ele>
        <time>2020-05-23T14:42:47Z</time>
      </trkpt>
      <trkpt lat="48.79798" lon="-0.25009">
        <ele>202</ele>
        <time>2020-05-23T14:43:02Z</time>
      </trkpt>
      <trkpt lat="48.79814" lon="-0.24943">
        <ele>202</ele>
        <time>2020-05-23T14:43:13Z</time>
      </trkpt>
      <trkpt lat="48.79845" lon="-0.24871">
        <ele>202</ele>
        <time>2020-05-23T14:43:27Z</time>
      </trkpt>
      <trkpt lat="48.79904" lon="-0.24836">
        <ele>202</ele>
        <time>2020-05-23T14:43:41Z</time>
      </trkpt>
      <trkpt lat="48.79961" lon="-0.24864">
        <ele>200</ele>
        <time>2020-05-23T14:43:55Z</time>
      </trkpt>
      <trkpt lat="48.80079" lon="-0.24867">
        <ele>198</ele>
        <time>2020-05-23T14:44:23Z</time>
      </trkpt>
      <trkpt lat="48.80199" lon="-0.24962">
        <ele>198</ele>
        <time>2020-05-23T14:44:54Z</time>
      </trkpt>
      <trkpt lat="48.80289" lon="-0.24929">
        <ele>197</ele>
        <time>2020-05-23T14:45:16Z</time>
      </trkpt>
      <trkpt lat="48.80465" lon="-0.24947">
        <ele>197</ele>
        <time>2020-05-23T14:45:57Z</time>
      </trkpt>
      <trkpt lat="48.8066" lon="-0.24921">
        <ele>204</ele>
        <time>2020-05-23T14:46:43Z</time>
      </trkpt>
      <trkpt lat="48.80673" lon="-0.24937">
        <ele>204</ele>
        <time>2020-05-23T14:46:47Z</time>
      </trkpt>
      <trkpt lat="48.80679" lon="-0.24974">
        <ele>203</ele>
        <time>2020-05-23T14:46:53Z</time>
      </trkpt>
      <trkpt lat="48.80694" lon="-0.25002">
        <ele>203</ele>
        <time>2020-05-23T14:46:58Z</time>
      </trkpt>
      <trkpt lat="48.80895" lon="-0.24869">
        <ele>212</ele>
        <time>2020-05-23T14:47:50Z</time>
      </trkpt>
      <trkpt lat="48.81217" lon="-0.24826">
        <ele>217</ele>
        <time>2020-05-23T14:49:05Z</time>
      </trkpt>
      <trkpt lat="48.81371" lon="-0.24556">
        <ele>219</ele>
        <time>2020-05-23T14:50:00Z</time>
      </trkpt>
      <trkpt lat="48.81474" lon="-0.24436">
        <ele>218</ele>
        <time>2020-05-23T14:50:30Z</time>
      </trkpt>
      <trkpt lat="48.8153" lon="-0.24302">
        <ele>217</ele>
        <time>2020-05-23T14:50:55Z</time>
      </trkpt>
      <trkpt lat="48.81569" lon="-0.24244">
        <ele>218</ele>
        <time>2020-05-23T14:51:07Z</time>
      </trkpt>
      <trkpt lat="48.81591" lon="-0.24233">
        <ele>218</ele>
        <time>2020-05-23T14:51:13Z</time>
      </trkpt>
      <trkpt lat="48.81653" lon="-0.24067">
        <ele>217</ele>
        <time>2020-05-23T14:51:42Z</time>
      </trkpt>
      <trkpt lat="48.81635" lon="-0.2401">
        <ele>218</ele>
        <time>2020-05-23T14:51:52Z</time>
      </trkpt>
      <trkpt lat="48.81628" lon="-0.23893">
        <ele>217</ele>
        <time>2020-05-23T14:52:10Z</time>
      </trkpt>
      <trkpt lat="48.81604" lon="-0.23882">
        <ele>217</ele>
        <time>2020-05-23T14:52:16Z</time>
      </trkpt>
      <trkpt lat="48.81562" lon="-0.23849">
        <ele>217</ele>
        <time>2020-05-23T14:52:27Z</time>
      </trkpt>
      <trkpt lat="48.81478" lon="-0.23708">
        <ele>216</ele>
        <time>2020-05-23T14:52:56Z</time>
      </trkpt>
      <trkpt lat="48.81342" lon="-0.23556">
        <ele>211</ele>
        <time>2020-05-23T14:53:36Z</time>
      </trkpt>
      <trkpt lat="48.81183" lon="-0.23394">
        <ele>191</ele>
        <time>2020-05-23T14:54:20Z</time>
      </trkpt>
      <trkpt lat="48.81043" lon="-0.2332">
        <ele>183</ele>
        <time>2020-05-23T14:54:55Z</time>
      </trkpt>
      <trkpt lat="48.80953" lon="-0.23245">
        <ele>180</ele>
        <time>2020-05-23T14:55:19Z</time>
      </trkpt>
      <trkpt lat="48.80879" lon="-0.23218">
        <ele>180</ele>
        <time>2020-05-23T14:55:37Z</time>
      </trkpt>
      <trkpt lat="48.80764" lon="-0.23177">
        <ele>186</ele>
        <time>2020-05-23T14:56:04Z</time>
      </trkpt>
      <trkpt lat="48.80671" lon="-0.2314">
        <ele>192</ele>
        <time>2020-05-23T14:56:27Z</time>
      </trkpt>
      <trkpt lat="48.8054" lon="-0.23087">
        <ele>198</ele>
        <time>2020-05-23T14:56:58Z</time>
      </trkpt>
      <trkpt lat="48.80351" lon="-0.23024">
        <ele>200</ele>
        <time>2020-05-23T14:57:43Z</time>
      </trkpt>
      <trkpt lat="48.80256" lon="-0.22981">
        <ele>198</ele>
        <time>2020-05-23T14:58:07Z</time>
      </trkpt>
      <trkpt lat="48.8018" lon="-0.23016">
        <ele>200</ele>
        <time>2020-05-23T14:58:25Z</time>
      </trkpt>
      <trkpt lat="48.80125" lon="-0.23059">
        <ele>204</ele>
        <time>2020-05-23T14:58:40Z</time>
      </trkpt>
      <trkpt lat="48.80063" lon="-0.23068">
        <ele>207</ele>
        <time>2020-05-23T14:58:54Z</time>
      </trkpt>
      <trkpt lat="48.79992" lon="-0.2303">
        <ele>210</ele>
        <time>2020-05-23T14:59:12Z</time>
      </trkpt>
      <trkpt lat="48.79971" lon="-0.23003">
        <ele>211</ele>
        <time>2020-05-23T14:59:18Z</time>
      </trkpt>
      <trkpt lat="48.79814" lon="-0.22468">
        <ele>214</ele>
        <time>2020-05-23T15:00:48Z</time>
      </trkpt>
      <trkpt lat="48.79716" lon="-0.22499">
        <ele>219</ele>
        <time>2020-05-23T15:01:12Z</time>
      </trkpt>
      <trkpt lat="48.79661" lon="-0.22616">
        <ele>224</ele>
        <time>2020-05-23T15:01:34Z</time>
      </trkpt>
      <trkpt lat="48.79594" lon="-0.22998">
        <ele>227</ele>
        <time>2020-05-23T15:02:35Z</time>
      </trkpt>
      <trkpt lat="48.7956" lon="-0.23122">
        <ele>229</ele>
        <time>2020-05-23T15:02:55Z</time>
      </trkpt>
      <trkpt lat="48.795" lon="-0.23242">
        <ele>229</ele>
        <time>2020-05-23T15:03:18Z</time>
      </trkpt>
      <trkpt lat="48.79213" lon="-0.23652">
        <ele>227</ele>
        <time>2020-05-23T15:04:50Z</time>
      </trkpt>
      <trkpt lat="48.78934" lon="-0.23956">
        <ele>223</ele>
        <time>2020-05-23T15:06:11Z</time>
      </trkpt>
      <trkpt lat="48.78882" lon="-0.24009">
        <ele>222</ele>
        <time>2020-05-23T15:06:25Z</time>
      </trkpt>
      <trkpt lat="48.78502" lon="-0.24206">
        <ele>215</ele>
        <time>2020-05-23T15:07:59Z</time>
      </trkpt>
      <trkpt lat="48.78398" lon="-0.24287">
        <ele>210</ele>
        <time>2020-05-23T15:08:26Z</time>
      </trkpt>
      <trkpt lat="48.78356" lon="-0.24233">
        <ele>209</ele>
        <time>2020-05-23T15:08:39Z</time>
      </trkpt>
      <trkpt lat="48.7823" lon="-0.23716">
        <ele>217</ele>
        <time>2020-05-23T15:10:04Z</time>
      </trkpt>
      <trkpt lat="48.78197" lon="-0.23577">
        <ele>217</ele>
        <time>2020-05-23T15:10:27Z</time>
      </trkpt>
      <trkpt lat="48.78178" lon="-0.23449">
        <ele>220</ele>
        <time>2020-05-23T15:10:47Z</time>
      </trkpt>
      <trkpt lat="48.7816" lon="-0.23366">
        <ele>221</ele>
        <time>2020-05-23T15:11:00Z</time>
      </trkpt>
      <trkpt lat="48.78164" lon="-0.23312">
        <ele>221</ele>
        <time>2020-05-23T15:11:09Z</time>
      </trkpt>
      <trkpt lat="48.78135" lon="-0.23196">
        <ele>221</ele>
        <time>2020-05-23T15:11:28Z</time>
      </trkpt>
      <trkpt lat="48.78038" lon="-0.23232">
        <ele>220</ele>
        <time>2020-05-23T15:11:51Z</time>
      </trkpt>
      <trkpt lat="48.77944" lon="-0.23243">
        <ele>220</ele>
        <time>2020-05-23T15:12:13Z</time>
      </trkpt>
      <trkpt lat="48.77823" lon="-0.23187">
        <ele>217</ele>
        <time>2020-05-23T15:12:43Z</time>
      </trkpt>
      <trkpt lat="48.77748" lon="-0.23185">
        <ele>216</ele>
        <time>2020-05-23T15:13:00Z</time>
      </trkpt>
      <trkpt lat="48.77737" lon="-0.23158">
        <ele>215</ele>
        <time>2020-05-23T15:13:05Z</time>
      </trkpt>
      <trkpt lat="48.77755" lon="-0.23111">
        <ele>213</ele>
        <time>2020-05-23T15:13:14Z</time>
      </trkpt>
      <trkpt lat="48.77677" lon="-0.23106">
        <ele>210</ele>
        <time>2020-05-23T15:13:32Z</time>
      </trkpt>
      <trkpt lat="48.77658" lon="-0.23023">
        <ele>206</ele>
        <time>2020-05-23T15:13:45Z</time>
      </trkpt>
      <trkpt lat="48.77633" lon="-0.22927">
        <ele>209</ele>
        <time>2020-05-23T15:14:01Z</time>
      </trkpt>
      <trkpt lat="48.77509" lon="-0.22893">
        <ele>199</ele>
        <time>2020-05-23T15:14:31Z</time>
      </trkpt>
      <trkpt lat="48.7746" lon="-0.22836">
        <ele>198</ele>
        <time>2020-05-23T15:14:45Z</time>
      </trkpt>
      <trkpt lat="48.77422" lon="-0.22781">
        <ele>197</ele>
        <time>2020-05-23T15:14:57Z</time>
      </trkpt>
      <trkpt lat="48.77386" lon="-0.22771">
        <ele>200</ele>
        <time>2020-05-23T15:15:06Z</time>
      </trkpt>
      <trkpt lat="48.77351" lon="-0.22829">
        <ele>196</ele>
        <time>2020-05-23T15:15:18Z</time>
      </trkpt>
      <trkpt lat="48.7731" lon="-0.22883">
        <ele>193</ele>
        <time>2020-05-23T15:15:31Z</time>
      </trkpt>
      <trkpt lat="48.77271" lon="-0.22932">
        <ele>192</ele>
        <time>2020-05-23T15:15:42Z</time>
      </trkpt>
      <trkpt lat="48.77231" lon="-0.23036">
        <ele>186</ele>
        <time>2020-05-23T15:16:01Z</time>
      </trkpt>
      <trkpt lat="48.77167" lon="-0.23096">
        <ele>181</ele>
        <time>2020-05-23T15:16:19Z</time>
      </trkpt>
      <trkpt lat="48.77111" lon="-0.23197">
        <ele>178</ele>
        <time>2020-05-23T15:16:39Z</time>
      </trkpt>
      <trkpt lat="48.77037" lon="-0.22961">
        <ele>191</ele>
        <time>2020-05-23T15:17:19Z</time>
      </trkpt>
      <trkpt lat="48.77005" lon="-0.22883">
        <ele>196</ele>
        <time>2020-05-23T15:17:33Z</time>
      </trkpt>
      <trkpt lat="48.76883" lon="-0.22694">
        <ele>198</ele>
        <time>2020-05-23T15:18:14Z</time>
      </trkpt>
      <trkpt lat="48.76662" lon="-0.22325">
        <ele>207</ele>
        <time>2020-05-23T15:19:31Z</time>
      </trkpt>
      <trkpt lat="48.76584" lon="-0.22244">
        <ele>206</ele>
        <time>2020-05-23T15:19:53Z</time>
      </trkpt>
      <trkpt lat="48.76589" lon="-0.2274">
        <ele>198</ele>
        <time>2020-05-23T15:21:09Z</time>
      </trkpt>
      <trkpt lat="48.76554" lon="-0.22885">
        <ele>192</ele>
        <time>2020-05-23T15:21:33Z</time>
      </trkpt>
      <trkpt lat="48.76469" lon="-0.23067">
        <ele>183</ele>
        <time>2020-05-23T15:22:07Z</time>
      </trkpt>
      <trkpt lat="48.76572" lon="-0.23154">
        <ele>183</ele>
        <time>2020-05-23T15:22:35Z</time>
      </trkpt>
      <trkpt lat="48.76541" lon="-0.23366">
        <ele>175</ele>
        <time>2020-05-23T15:23:08Z</time>
      </trkpt>
      <trkpt lat="48.76538" lon="-0.23465">
        <ele>171</ele>
        <time>2020-05-23T15:23:23Z</time>
      </trkpt>
      <trkpt lat="48.7653" lon="-0.2354">
        <ele>169</ele>
        <time>2020-05-23T15:23:35Z</time>
      </trkpt>
      <trkpt lat="48.76523" lon="-0.23693">
        <ele>164</ele>
        <time>2020-05-23T15:23:59Z</time>
      </trkpt>
      <trkpt lat="48.76529" lon="-0.23837">
        <ele>156</ele>
        <time>2020-05-23T15:24:21Z</time>
      </trkpt>
      <trkpt lat="48.76562" lon="-0.24003">
        <ele>149</ele>
        <time>2020-05-23T15:24:48Z</time>
      </trkpt>
      <trkpt lat="48.76555" lon="-0.24077">
        <ele>146</ele>
        <time>2020-05-23T15:24:59Z</time>
      </trkpt>
      <trkpt lat="48.7653" lon="-0.24124">
        <ele>145</ele>
        <time>2020-05-23T15:25:08Z</time>
      </trkpt>
      <trkpt lat="48.76512" lon="-0.24155">
        <ele>144</ele>
        <time>2020-05-23T15:25:15Z</time>
      </trkpt>
      <trkpt lat="48.7639" lon="-0.24229">
        <ele>138</ele>
        <time>2020-05-23T15:25:45Z</time>
      </trkpt>
      <trkpt lat="48.76356" lon="-0.24169">
        <ele>146</ele>
        <time>2020-05-23T15:25:58Z</time>
      </trkpt>
      <trkpt lat="48.76236" lon="-0.24204">
        <ele>143</ele>
        <time>2020-05-23T15:26:26Z</time>
      </trkpt>
      <trkpt lat="48.76254" lon="-0.24272">
        <ele>135</ele>
        <time>2020-05-23T15:26:37Z</time>
      </trkpt>
      <trkpt lat="48.76297" lon="-0.24299">
        <ele>132</ele>
        <time>2020-05-23T15:26:48Z</time>
      </trkpt>
      <trkpt lat="48.76332" lon="-0.24348">
        <ele>127</ele>
        <time>2020-05-23T15:26:59Z</time>
      </trkpt>
      <trkpt lat="48.76385" lon="-0.2438">
        <ele>127</ele>
        <time>2020-05-23T15:27:13Z</time>
      </trkpt>
      <trkpt lat="48.76391" lon="-0.24486">
        <ele>129</ele>
        <time>2020-05-23T15:27:29Z</time>
      </trkpt>
    </trkseg>
  </trk>
</gpx>